Time,TemperatureF,DewpointF,PressureIn,WindDirection,WindDirectionDegrees,WindSpeedMPH,WindSpeedGustMPH,Humidity,HourlyPrecipIn,Conditions,Clouds,dailyrainin,SoftwareType,DateUTC
2013-01-22 00:00:00,70.0,-99.9,30.06,NNW,330,18.0,21.0,-999,-99.99,,,-99.99,,2013-01-22 05:00:00,
2013-01-22 00:23:00,70.0,-99.9,30.06,NNW,330,18.0,21.0,-999,-99.99,,,-99.99,,2013-01-22 05:23:00,
2013-01-22 00:33:00,70.0,-99.9,30.06,NNW,330,18.0,21.0,-999,-99.99,,,-99.99,,2013-01-22 05:33:00,
2013-01-22 00:43:00,70.0,-99.9,30.06,NNW,330,18.0,21.0,-999,-99.99,,,-99.99,,2013-01-22 05:43:00,
2013-01-22 00:53:00,70.0,-99.9,30.06,NNW,330,18.0,21.0,-999,-99.99,,,-99.99,,2013-01-22 05:53:00,
2013-01-22 01:00:00,70.0,-99.9,30.06,NNW,330,20.0,23.0,-999,-99.99,,,-99.99,,2013-01-22 06:00:00,
2013-01-22 01:22:00,70.0,-99.9,30.06,NNW,330,20.0,23.0,-999,-99.99,,,-99.99,,2013-01-22 06:22:00,
2013-01-22 01:33:00,70.0,-99.9,30.06,NNW,330,20.0,23.0,-999,-99.99,,,-99.99,,2013-01-22 06:33:00,
2013-01-22 01:43:00,70.0,-99.9,30.06,NNW,330,20.0,23.0,-999,-99.99,,,-99.99,,2013-01-22 06:43:00,
2013-01-22 01:53:00,70.0,-99.9,30.06,NNW,330,20.0,23.0,-999,-99.99,,,-99.99,,2013-01-22 06:53:00,
2013-01-22 02:00:00,70.0,-99.9,30.05,NNW,340,18.0,23.0,-999,-99.99,,,-99.99,,2013-01-22 07:00:00,
2013-01-22 02:22:00,70.0,-99.9,30.05,NNW,340,18.0,23.0,-999,-99.99,,,-99.99,,2013-01-22 07:22:00,
2013-01-22 02:33:00,70.0,-99.9,30.05,NNW,340,18.0,23.0,-999,-99.99,,,-99.99,,2013-01-22 07:33:00,
2013-01-22 02:43:00,70.0,-99.9,30.05,NNW,340,18.0,23.0,-999,-99.99,,,-99.99,,2013-01-22 07:43:00,
2013-01-22 02:53:00,70.0,-99.9,30.05,NNW,340,18.0,23.0,-999,-99.99,,,-99.99,,2013-01-22 07:53:00,
2013-01-22 03:00:00,69.0,-99.9,30.04,NNW,340,16.0,18.0,-999,-99.99,,,-99.99,,2013-01-22 08:00:00,
2013-01-22 03:23:00,69.0,-99.9,30.04,NNW,340,16.0,18.0,-999,-99.99,,,-99.99,,2013-01-22 08:23:00,
2013-01-22 03:33:00,69.0,-99.9,30.04,NNW,340,16.0,18.0,-999,-99.99,,,-99.99,,2013-01-22 08:33:00,
2013-01-22 03:43:00,69.0,-99.9,30.04,NNW,340,16.0,18.0,-999,-99.99,,,-99.99,,2013-01-22 08:43:00,
2013-01-22 03:53:00,69.0,-99.9,30.04,NNW,340,16.0,18.0,-999,-99.99,,,-99.99,,2013-01-22 08:53:00,
2013-01-22 04:00:00,68.0,-99.9,30.05,North,360,15.0,17.0,-999,-99.99,,,-99.99,,2013-01-22 09:00:00,
2013-01-22 04:23:00,68.0,-99.9,30.05,North,360,15.0,17.0,-999,-99.99,,,-99.99,,2013-01-22 09:23:00,
2013-01-22 04:33:00,68.0,-99.9,30.05,North,360,15.0,17.0,-999,-99.99,,,-99.99,,2013-01-22 09:33:00,
2013-01-22 04:43:00,68.0,-99.9,30.05,North,360,15.0,17.0,-999,-99.99,,,-99.99,,2013-01-22 09:43:00,
2013-01-22 04:53:00,68.0,-99.9,30.05,North,360,15.0,17.0,-999,-99.99,,,-99.99,,2013-01-22 09:53:00,
2013-01-22 05:00:00,68.0,-99.9,30.05,North,360,14.0,15.0,-999,-99.99,,,-99.99,,2013-01-22 10:00:00,
2013-01-22 05:22:00,68.0,-99.9,30.05,North,360,14.0,15.0,-999,-99.99,,,-99.99,,2013-01-22 10:22:00,
2013-01-22 05:33:00,68.0,-99.9,30.05,North,360,14.0,15.0,-999,-99.99,,,-99.99,,2013-01-22 10:33:00,
2013-01-22 05:43:00,68.0,-99.9,30.05,North,360,14.0,15.0,-999,-99.99,,,-99.99,,2013-01-22 10:43:00,
2013-01-22 05:53:00,68.0,-99.9,30.05,North,360,14.0,15.0,-999,-99.99,,,-99.99,,2013-01-22 10:53:00,
2013-01-22 06:00:00,67.0,-99.9,30.07,North,350,15.0,17.0,-999,-99.99,,,-99.99,,2013-01-22 11:00:00,
2013-01-22 06:23:00,67.0,-99.9,30.07,North,350,15.0,17.0,-999,-99.99,,,-99.99,,2013-01-22 11:23:00,
2013-01-22 06:33:00,67.0,-99.9,30.07,North,350,15.0,17.0,-999,-99.99,,,-99.99,,2013-01-22 11:33:00,
2013-01-22 06:43:00,67.0,-99.9,30.07,North,350,15.0,17.0,-999,-99.99,,,-99.99,,2013-01-22 11:43:00,
2013-01-22 06:54:00,67.0,-99.9,30.07,North,350,15.0,17.0,-999,-99.99,,,-99.99,,2013-01-22 11:54:00,
2013-01-22 07:00:00,67.0,-99.9,30.09,North,350,16.0,18.0,-999,-99.99,,,-99.99,,2013-01-22 12:00:00,
2013-01-22 07:23:00,67.0,-99.9,30.09,North,350,16.0,18.0,-999,-99.99,,,-99.99,,2013-01-22 12:23:00,
2013-01-22 07:33:00,67.0,-99.9,30.09,North,350,16.0,18.0,-999,-99.99,,,-99.99,,2013-01-22 12:33:00,
2013-01-22 07:43:00,67.0,-99.9,30.09,North,350,16.0,18.0,-999,-99.99,,,-99.99,,2013-01-22 12:43:00,
2013-01-22 07:53:00,67.0,-99.9,30.09,North,350,16.0,18.0,-999,-99.99,,,-99.99,,2013-01-22 12:53:00,
2013-01-22 09:00:00,65.0,-99.9,30.13,North,360,15.0,16.0,-999,-99.99,,,-99.99,,2013-01-22 14:00:00,
2013-01-22 09:45:00,65.0,-99.9,30.13,North,360,15.0,16.0,-999,-99.99,,,-99.99,,2013-01-22 14:45:00,
2013-01-22 09:54:00,65.0,-99.9,30.13,North,360,15.0,16.0,-999,-99.99,,,-99.99,,2013-01-22 14:54:00,
2013-01-22 10:00:00,66.0,-99.9,30.15,North,10,14.0,15.0,-999,-99.99,,,-99.99,,2013-01-22 15:00:00,
2013-01-22 10:24:00,66.0,-99.9,30.15,North,10,14.0,15.0,-999,-99.99,,,-99.99,,2013-01-22 15:24:00,
2013-01-22 10:34:00,66.0,-99.9,30.15,North,10,14.0,15.0,-999,-99.99,,,-99.99,,2013-01-22 15:34:00,
2013-01-22 10:44:00,66.0,-99.9,30.15,North,10,14.0,15.0,-999,-99.99,,,-99.99,,2013-01-22 15:44:00,
2013-01-22 10:54:00,66.0,-99.9,30.15,North,10,14.0,15.0,-999,-99.99,,,-99.99,,2013-01-22 15:54:00,
2013-01-22 11:00:00,67.0,-99.9,30.15,North,360,13.0,15.0,-999,-99.99,,,-99.99,,2013-01-22 16:00:00,
2013-01-22 11:24:00,67.0,-99.9,30.15,North,360,13.0,15.0,-999,-99.99,,,-99.99,,2013-01-22 16:24:00,
2013-01-22 11:34:00,67.0,-99.9,30.15,North,360,13.0,15.0,-999,-99.99,,,-99.99,,2013-01-22 16:34:00,
2013-01-22 11:44:00,67.0,-99.9,30.15,North,360,13.0,15.0,-999,-99.99,,,-99.99,,2013-01-22 16:44:00,
2013-01-22 11:54:00,67.0,-99.9,30.15,North,360,13.0,15.0,-999,-99.99,,,-99.99,,2013-01-22 16:54:00,
2013-01-22 12:00:00,68.0,-99.9,30.14,North,360,13.0,15.0,-999,-99.99,,,-99.99,,2013-01-22 17:00:00,
2013-01-22 12:24:00,68.0,-99.9,30.14,North,360,13.0,15.0,-999,-99.99,,,-99.99,,2013-01-22 17:24:00,
2013-01-22 12:35:00,68.0,-99.9,30.14,North,360,13.0,15.0,-999,-99.99,,,-99.99,,2013-01-22 17:35:00,
2013-01-22 12:44:00,68.0,-99.9,30.14,North,360,13.0,15.0,-999,-99.99,,,-99.99,,2013-01-22 17:44:00,
2013-01-22 12:54:00,68.0,-99.9,30.14,North,360,13.0,15.0,-999,-99.99,,,-99.99,,2013-01-22 17:54:00,
2013-01-22 13:00:00,70.0,-99.9,30.11,North,360,13.0,15.0,-999,-99.99,,,-99.99,,2013-01-22 18:00:00,
2013-01-22 13:24:00,70.0,-99.9,30.11,North,360,13.0,15.0,-999,-99.99,,,-99.99,,2013-01-22 18:24:00,
2013-01-22 13:34:00,70.0,-99.9,30.11,North,360,13.0,15.0,-999,-99.99,,,-99.99,,2013-01-22 18:34:00,
2013-01-22 13:44:00,70.0,-99.9,30.11,North,360,13.0,15.0,-999,-99.99,,,-99.99,,2013-01-22 18:44:00,
2013-01-22 13:54:00,70.0,-99.9,30.11,North,360,13.0,15.0,-999,-99.99,,,-99.99,,2013-01-22 18:54:00,
2013-01-22 14:00:00,71.0,-99.9,30.10,NNW,340,13.0,15.0,-999,-99.99,,,-99.99,,2013-01-22 19:00:00,
2013-01-22 14:24:00,71.0,-99.9,30.10,NNW,340,13.0,15.0,-999,-99.99,,,-99.99,,2013-01-22 19:24:00,
2013-01-22 14:34:00,71.0,-99.9,30.10,NNW,340,13.0,15.0,-999,-99.99,,,-99.99,,2013-01-22 19:34:00,
2013-01-22 14:44:00,71.0,-99.9,30.10,NNW,340,13.0,15.0,-999,-99.99,,,-99.99,,2013-01-22 19:44:00,
2013-01-22 14:54:00,71.0,-99.9,30.10,NNW,340,13.0,15.0,-999,-99.99,,,-99.99,,2013-01-22 19:54:00,
2013-01-22 15:00:00,71.0,-99.9,30.10,NNW,340,10.0,13.0,-999,-99.99,,,-99.99,,2013-01-22 20:00:00,
2013-01-22 15:23:00,71.0,-99.9,30.10,NNW,340,10.0,13.0,-999,-99.99,,,-99.99,,2013-01-22 20:23:00,
2013-01-22 15:34:00,71.0,-99.9,30.10,NNW,340,10.0,13.0,-999,-99.99,,,-99.99,,2013-01-22 20:34:00,
2013-01-22 15:43:00,71.0,-99.9,30.10,NNW,340,10.0,13.0,-999,-99.99,,,-99.99,,2013-01-22 20:43:00,
2013-01-22 15:54:00,71.0,-99.9,30.10,NNW,340,10.0,13.0,-999,-99.99,,,-99.99,,2013-01-22 20:54:00,
2013-01-22 16:00:00,72.0,-99.9,30.11,North,360,15.0,16.0,-999,-99.99,,,-99.99,,2013-01-22 21:00:00,
2013-01-22 16:23:00,72.0,-99.9,30.11,North,360,15.0,16.0,-999,-99.99,,,-99.99,,2013-01-22 21:23:00,
2013-01-22 16:34:00,72.0,-99.9,30.11,North,360,15.0,16.0,-999,-99.99,,,-99.99,,2013-01-22 21:34:00,
2013-01-22 16:44:00,72.0,-99.9,30.11,North,360,15.0,16.0,-999,-99.99,,,-99.99,,2013-01-22 21:44:00,
2013-01-22 16:53:00,72.0,-99.9,30.11,North,360,15.0,16.0,-999,-99.99,,,-99.99,,2013-01-22 21:53:00,
2013-01-22 17:00:00,73.0,-99.9,30.12,North,360,14.0,15.0,-999,-99.99,,,-99.99,,2013-01-22 22:00:00,
2013-01-22 17:23:00,73.0,-99.9,30.12,North,360,14.0,15.0,-999,-99.99,,,-99.99,,2013-01-22 22:23:00,
2013-01-22 17:33:00,73.0,-99.9,30.12,North,360,14.0,15.0,-999,-99.99,,,-99.99,,2013-01-22 22:33:00,
2013-01-22 17:44:00,73.0,-99.9,30.12,North,360,14.0,15.0,-999,-99.99,,,-99.99,,2013-01-22 22:44:00,
2013-01-22 17:53:00,73.0,-99.9,30.12,North,360,14.0,15.0,-999,-99.99,,,-99.99,,2013-01-22 22:53:00,
2013-01-22 18:00:00,72.0,-99.9,30.14,NNE,20,17.0,21.0,-999,-99.99,,,-99.99,,2013-01-22 23:00:00,
2013-01-22 18:24:00,72.0,-99.9,30.14,NNE,20,17.0,21.0,-999,-99.99,,,-99.99,,2013-01-22 23:24:00,
2013-01-22 18:34:00,72.0,-99.9,30.14,NNE,20,17.0,21.0,-999,-99.99,,,-99.99,,2013-01-22 23:34:00,
2013-01-22 18:43:00,72.0,-99.9,30.14,NNE,20,17.0,21.0,-999,-99.99,,,-99.99,,2013-01-22 23:43:00,
2013-01-22 18:53:00,72.0,-99.9,30.14,NNE,20,17.0,21.0,-999,-99.99,,,-99.99,,2013-01-22 23:53:00,
2013-01-22 19:00:00,71.0,-99.9,30.15,NNE,20,21.0,23.0,-999,-99.99,,,-99.99,,2013-01-23 00:00:00,
2013-01-22 19:23:00,71.0,-99.9,30.15,NNE,20,21.0,23.0,-999,-99.99,,,-99.99,,2013-01-23 00:23:00,
2013-01-22 19:33:00,71.0,-99.9,30.15,NNE,20,21.0,23.0,-999,-99.99,,,-99.99,,2013-01-23 00:33:00,
2013-01-22 19:43:00,71.0,-99.9,30.15,NNE,20,21.0,23.0,-999,-99.99,,,-99.99,,2013-01-23 00:43:00,
2013-01-22 19:53:00,71.0,-99.9,30.15,NNE,20,21.0,23.0,-999,-99.99,,,-99.99,,2013-01-23 00:53:00,
2013-01-22 20:00:00,70.0,-99.9,30.17,North,10,20.0,21.0,-999,-99.99,,,-99.99,,2013-01-23 01:00:00,
2013-01-22 20:23:00,70.0,-99.9,30.17,North,10,20.0,21.0,-999,-99.99,,,-99.99,,2013-01-23 01:23:00,
2013-01-22 20:33:00,70.0,-99.9,30.17,North,10,20.0,21.0,-999,-99.99,,,-99.99,,2013-01-23 01:33:00,
2013-01-22 20:43:00,70.0,-99.9,30.17,North,10,20.0,21.0,-999,-99.99,,,-99.99,,2013-01-23 01:43:00,
2013-01-22 20:53:00,70.0,-99.9,30.17,North,10,20.0,21.0,-999,-99.99,,,-99.99,,2013-01-23 01:53:00,
2013-01-22 21:00:00,69.0,-99.9,30.19,NNE,20,21.0,22.0,-999,-99.99,,,-99.99,,2013-01-23 02:00:00,
2013-01-22 21:23:00,69.0,-99.9,30.19,NNE,20,21.0,22.0,-999,-99.99,,,-99.99,,2013-01-23 02:23:00,
2013-01-22 21:33:00,69.0,-99.9,30.19,NNE,20,21.0,22.0,-999,-99.99,,,-99.99,,2013-01-23 02:33:00,
2013-01-22 21:43:00,69.0,-99.9,30.19,NNE,20,21.0,22.0,-999,-99.99,,,-99.99,,2013-01-23 02:43:00,
2013-01-22 21:54:00,69.0,-99.9,30.19,NNE,20,21.0,22.0,-999,-99.99,,,-99.99,,2013-01-23 02:54:00,
2013-01-22 22:00:00,68.0,-99.9,30.20,NNE,20,23.0,25.0,-999,-99.99,,,-99.99,,2013-01-23 03:00:00,
2013-01-22 22:23:00,68.0,-99.9,30.20,NNE,20,23.0,25.0,-999,-99.99,,,-99.99,,2013-01-23 03:23:00,
2013-01-22 22:33:00,68.0,-99.9,30.20,NNE,20,23.0,25.0,-999,-99.99,,,-99.99,,2013-01-23 03:33:00,
2013-01-22 22:43:00,68.0,-99.9,30.20,NNE,20,23.0,25.0,-999,-99.99,,,-99.99,,2013-01-23 03:43:00,
2013-01-22 22:53:00,68.0,-99.9,30.20,NNE,20,23.0,25.0,-999,-99.99,,,-99.99,,2013-01-23 03:53:00,
2013-01-22 23:00:00,67.0,-99.9,30.20,North,10,22.0,24.0,-999,-99.99,,,-99.99,,2013-01-23 04:00:00,
2013-01-22 23:23:00,67.0,-99.9,30.20,North,10,22.0,24.0,-999,-99.99,,,-99.99,,2013-01-23 04:23:00,
2013-01-22 23:33:00,67.0,-99.9,30.20,North,10,22.0,24.0,-999,-99.99,,,-99.99,,2013-01-23 04:33:00,
2013-01-22 23:43:00,67.0,-99.9,30.20,North,10,22.0,24.0,-999,-99.99,,,-99.99,,2013-01-23 04:43:00,
2013-01-22 23:53:00,67.0,-99.9,30.20,North,10,22.0,24.0,-999,-99.99,,,-99.99,,2013-01-23 04:53:00,